| time (UTC) | temp F | wind direction | speed MPH | gust MPH | rain 1hr in | rain 24hr in | rain mn in | humidity % | barometer mb |
| 20260507021017 | 39 | 315 | 0.0 | 0.0 | 0.00 | 0.27 | 0.17 | 76 | 1013.4 |
| 20260507010013 | 44 | 315 | 0.0 | 0.0 | 0.00 | 0.35 | 0.17 | 60 | 1012.8 |
| 20260507003019 | 48 | 315 | 0.0 | 0.0 | 0.00 | 0.41 | 0.17 | 50 | 1012.5 |
| 20260507002013 | 49 | 315 | 0.0 | 0.0 | 0.00 | 0.44 | 0.17 | 50 | 1012.5 |
| 20260506235011 | 53 | 315 | 0.0 | 0.0 | 0.00 | 0.52 | 0.17 | 45 | 1012.4 |
| 20260506233021 | 53 | 315 | 0.0 | 0.0 | 0.00 | 0.54 | 0.17 | 45 | 1012.3 |
| 20260506230021 | 54 | 293 | 0.0 | 1.0 | 0.00 | 0.56 | 0.17 | 44 | 1012.7 |
| 20260506225017 | 54 | 248 | 0.0 | 5.0 | 0.00 | 0.58 | 0.17 | 45 | 1012.9 |
| 20260506224020 | 54 | 315 | 0.0 | 1.0 | 0.00 | 0.59 | 0.17 | 52 | 1012.9 |
| 20260506223022 | 55 | 248 | 0.0 | 5.0 | 0.00 | 0.60 | 0.17 | 45 | 1012.9 |
| 20260506222012 | 56 | 248 | 0.0 | 5.0 | 0.00 | 0.60 | 0.17 | 46 | 1012.8 |
| 20260506214017 | 56 | 315 | 0.0 | 3.0 | 0.00 | 0.61 | 0.17 | 48 | 1012.6 |
| 20260506213019 | 57 | 270 | 0.0 | 1.0 | 0.00 | 0.61 | 0.17 | 48 | 1012.3 |
| 20260506211014 | 58 | 293 | 0.0 | 5.0 | 0.00 | 0.62 | 0.17 | 48 | 1012.2 |
| 20260506210015 | 58 | 315 | 0.0 | 3.0 | 0.00 | 0.63 | 0.17 | 49 | 1012.1 |
| 20260506204014 | 57 | 315 | 0.0 | 3.0 | 0.00 | 0.65 | 0.17 | 43 | 1012.1 |
| 20260506203016 | 58 | 315 | 0.0 | 3.0 | 0.00 | 0.66 | 0.17 | 43 | 1012.1 |
| 20260506202013 | 58 | 293 | 0.0 | 3.0 | 0.00 | 0.68 | 0.17 | 43 | 1012.1 |
| 20260506201010 | 59 | 315 | 0.0 | 5.0 | 0.00 | 0.71 | 0.17 | 44 | 1012.1 |
| 20260506195013 | 58 | 315 | 0.0 | 2.0 | 0.00 | 0.72 | 0.17 | 44 | 1012.1 |
| 20260506191017 | 58 | 270 | 0.0 | 6.0 | 0.00 | 0.73 | 0.17 | 46 | 1012.0 |
| 20260506183012 | 60 | 315 | 0.0 | 3.0 | 0.00 | 0.76 | 0.17 | 44 | 1011.8 |
| 20260506182014 | 59 | 338 | 0.0 | 5.0 | 0.00 | 0.76 | 0.17 | 45 | 1011.8 |
| 20260506181015 | 59 | 293 | 0.0 | 2.0 | 0.00 | 0.76 | 0.17 | 44 | 1012.2 |
| 20260506180020 | 60 | 0 | 0.0 | 5.0 | 0.00 | 0.76 | 0.17 | 46 | 1012.0 |
| 20260506175013 | 61 | 315 | 0.0 | 5.0 | 0.00 | 0.76 | 0.17 | 44 | 1012.3 |
| 20260506173015 | 68 | 315 | 0.0 | 3.0 | 0.00 | 0.76 | 0.17 | 40 | 1012.0 |
| 20260506171012 | 74 | 315 | 0.0 | 6.0 | 0.00 | 0.76 | 0.17 | 39 | 1012.0 |
| 20260506170011 | 72 | 315 | 1.0 | 3.0 | 0.00 | 0.76 | 0.17 | 46 | 1012.2 |
| 20260506165010 | 72 | 315 | 0.0 | 7.0 | 0.00 | 0.76 | 0.17 | 43 | 1012.1 |
| 20260506164011 | 72 | 315 | 1.0 | 7.0 | 0.00 | 0.76 | 0.17 | 45 | 1012.0 |
| 20260506163011 | 71 | 315 | 0.0 | 7.0 | 0.00 | 0.76 | 0.17 | 44 | 1011.8 |
| 20260506162010 | 71 | 0 | 0.0 | 8.0 | 0.00 | 0.76 | 0.17 | 43 | 1012.0 |
| 20260506161013 | 70 | 315 | 0.0 | 7.0 | 0.00 | 0.76 | 0.17 | 44 | 1011.9 |
| 20260506155012 | 69 | 315 | 0.0 | 5.0 | 0.00 | 0.76 | 0.17 | 47 | 1012.0 |
| 20260506154019 | 72 | 315 | 0.0 | 3.0 | 0.00 | 0.76 | 0.17 | 54 | 1012.0 |
| 20260506152017 | 71 | 315 | 0.0 | 3.0 | 0.01 | 0.76 | 0.17 | 53 | 1011.5 |
| 20260506145012 | 65 | 270 | 0.0 | 2.0 | 0.01 | 0.76 | 0.17 | 60 | 1011.3 |
| 20260506144011 | 62 | 338 | 0.0 | 3.0 | 0.01 | 0.76 | 0.17 | 78 | 1011.2 |
| 20260506142021 | 58 | 0 | 0.0 | 5.0 | 0.00 | 0.75 | 0.16 | 79 | 1011.2 |
| 20260506141020 | 57 | 315 | 0.0 | 3.0 | 0.00 | 0.75 | 0.16 | 83 | 1011.1 |
| 20260506135021 | 53 | 315 | 0.0 | 5.0 | 0.00 | 0.75 | 0.16 | 84 | 1010.9 |
| 20260506134019 | 53 | 315 | 0.0 | 2.0 | 0.00 | 0.75 | 0.16 | 98 | 1010.4 |
| 20260506133018 | 52 | 0 | 0.0 | 0.0 | 0.00 | 0.75 | 0.16 | 95 | 1010.5 |
| 20260506131018 | 48 | 0 | 0.0 | 0.0 | 0.00 | 0.75 | 0.16 | 88 | 1010.7 |
| 20260506125018 | 48 | 0 | 0.0 | 0.0 | 0.00 | 0.75 | 0.16 | 90 | 1010.5 |
| 20260506124017 | 47 | 0 | 0.0 | 0.0 | 0.00 | 0.75 | 0.16 | 87 | 1010.2 |
| 20260506115022 | 43 | 0 | 0.0 | 0.0 | 0.00 | 0.75 | 0.16 | 83 | 1009.5 |
| 20260506113019 | 43 | 0 | 0.0 | 0.0 | 0.00 | 0.75 | 0.16 | 82 | 1009.1 |
| 20260506112016 | 42 | 0 | 0.0 | 0.0 | 0.00 | 0.75 | 0.16 | 82 | 1008.8 |
| 20260506111018 | 42 | 0 | 0.0 | 0.0 | 0.00 | 0.75 | 0.16 | 82 | 1008.4 |
| 20260506110021 | 42 | 0 | 0.0 | 0.0 | 0.00 | 0.75 | 0.16 | 82 | 1008.6 |
| 20260506105020 | 42 | 0 | 0.0 | 0.0 | 0.00 | 0.75 | 0.16 | 81 | 1008.5 |
| 20260506102016 | 42 | 0 | 0.0 | 0.0 | 0.00 | 0.75 | 0.16 | 82 | 1008.2 |
| 20260506095011 | 42 | 0 | 0.0 | 0.0 | 0.00 | 0.75 | 0.16 | 82 | 1008.2 |
| 20260506093017 | 42 | 0 | 0.0 | 0.0 | 0.00 | 0.76 | 0.16 | 82 | 1007.6 |
| 20260506091013 | 42 | 0 | 0.0 | 0.0 | 0.00 | 0.77 | 0.16 | 82 | 1007.5 |
| 20260506083021 | 42 | 0 | 0.0 | 3.0 | 0.00 | 0.83 | 0.16 | 86 | 1007.4 |
| 20260506073015 | 43 | 0 | 1.0 | 7.0 | 0.02 | 0.83 | 0.16 | 70 | 1007.3 |
| 20260506061014 | 44 | 0 | 0.0 | 0.0 | 0.05 | 0.80 | 0.13 | 70 | 1007.9 |
| 20260506051009 | 44 | 0 | 0.0 | 5.0 | 0.04 | 0.75 | 0.08 | 68 | 1008.0 |
| 20260506045015 | 44 | 0 | 0.0 | 3.0 | 0.11 | 0.74 | 0.07 | 68 | 1007.8 |
| 20260506042011 | 44 | 0 | 1.0 | 10.0 | 0.12 | 0.73 | 0.06 | 67 | 1007.7 |
| 20260506041010 | 45 | 0 | 1.0 | 7.0 | 0.10 | 0.71 | 0.04 | 67 | 1007.9 |
| 20260506035017 | 45 | 0 | 3.0 | 10.0 | 0.04 | 0.65 | 0.65 | 68 | 1007.7 |